^^
Grace C. Lehan Memorial Weather Station Historical Data
Daily Summary for January 14, 2022 Units:  Metric    English   Both
Daily Weekly Monthly Yearly
  High: Low: Average:
Temperature: 6.1 °C -8.9 °C 1.1 °C
Dew Point: 0.8 °C -18.7 °C -4.4 °C
Humidity: 81.8% 41% 68%
Wind Speed: 24.6km/h 0km/h 8.2km/h
Wind Gust: 41.8km/h - -
Wind- - WNW
Pressure: 1013.1 hPa 1005.6 hPa -
Precipitation: 0 mm    
 
 
Tabular Data for January 14, 2022
Time Temperature Dew Point Pressure Wind Wind Speed Wind Gust Humidity Rainfall Rate (Hourly) solar
00:04 1.2 °C -1.6 °C 1010.7 hPa Calm   3.2 km/h 81.8% 0 mm 0 W/m2
00:09 1.2 °C -1.7 °C 1010.7 hPa SSW 0.3 km/h 4.8 km/h 81% 0 mm 0 W/m2
00:14 1.2 °C -1.7 °C 1010.7 hPa SSW 1.1 km/h 4.8 km/h 81% 0 mm 0 W/m2
00:19 1.3 °C -1.7 °C 1010.7 hPa SSW 1.1 km/h 4.8 km/h 80.1% 0 mm 0 W/m2
00:24 1.3 °C -1.7 °C 1010.7 hPa Calm   4.8 km/h 80% 0 mm 0 W/m2
00:29 1.4 °C -1.7 °C 1010.7 hPa Calm   4.8 km/h 80% 0 mm 0 W/m2
00:34 1.4 °C -1.8 °C 1010.7 hPa Calm   4.8 km/h 79.3% 0 mm 0 W/m2
00:39 1.4 °C -1.8 °C 1010.4 hPa SSW 1.1 km/h 4.8 km/h 79% 0 mm 0 W/m2
00:44 1.4 °C -1.8 °C 1010.4 hPa SW 1.8 km/h 6.4 km/h 79% 0 mm 0 W/m2
00:49 1.4 °C -1.8 °C 1010.4 hPa WSW 0.5 km/h 6.4 km/h 79% 0 mm 0 W/m2
00:54 1.4 °C -1.8 °C 1010.4 hPa WSW 1 km/h 6.4 km/h 79.2% 0 mm 0 W/m2
00:59 1.5 °C -1.7 °C 1010.4 hPa WSW 1.4 km/h 6.4 km/h 79.5% 0 mm 0 W/m2
01:04 1.5 °C -1.7 °C 1010.4 hPa WSW 0.2 km/h 6.4 km/h 79.5% 0 mm 0 W/m2
01:09 1.5 °C -1.7 °C 1010.4 hPa WSW 0.6 km/h 4.8 km/h 79% 0 mm 0 W/m2
01:14 1.6 °C -1.7 °C 1010.4 hPa WSW 0.2 km/h 4.8 km/h 79% 0 mm 0 W/m2
01:19 1.6 °C -1.7 °C 1010.4 hPa WSW 1.6 km/h 6.4 km/h 79% 0 mm 0 W/m2
01:24 1.6 °C -1.6 °C 1010.4 hPa WNW 0.8 km/h 6.4 km/h 79% 0 mm 0 W/m2
01:29 1.7 °C -1.6 °C 1010 hPa NW 3.9 km/h 8 km/h 79% 0 mm 0 W/m2
01:34 1.7 °C -1.6 °C 1010 hPa NNW 3.4 km/h 9.7 km/h 79% 0 mm 0 W/m2
01:39 1.7 °C -1.7 °C 1010 hPa NNW 3.9 km/h 9.7 km/h 78.6% 0 mm 0 W/m2
01:44 1.7 °C -1.7 °C 1010 hPa NNW 4 km/h 9.7 km/h 78% 0 mm 0 W/m2
01:49 1.7 °C -1.7 °C 1010 hPa NNW 1.8 km/h 9.7 km/h 78.2% 0 mm 0 W/m2
01:54 1.7 °C -1.6 °C 1010 hPa NNW 0.8 km/h 9.7 km/h 78.3% 0 mm 0 W/m2
01:59 1.8 °C -1.6 °C 1010 hPa NNW 0.6 km/h 9.7 km/h 78.4% 0 mm 0 W/m2
02:04 1.8 °C -1.6 °C 1010 hPa NNW 1.6 km/h 9.7 km/h 78.4% 0 mm 0 W/m2
02:09 1.8 °C -1.6 °C 1010 hPa NNW 2.3 km/h 8 km/h 78% 0 mm 0 W/m2
02:14 1.9 °C -1.5 °C 1010 hPa NNW 0.6 km/h 8 km/h 78% 0 mm 0 W/m2
02:19 1.9 °C -1.4 °C 1010 hPa NNW 1 km/h 8 km/h 78% 0 mm 0 W/m2
02:24 2 °C -1.4 °C 1010 hPa North 2.7 km/h 8 km/h 77.9% 0 mm 0 W/m2
02:29 2.1 °C -1.6 °C 1010 hPa North 2.6 km/h 8 km/h 77% 0 mm 0 W/m2
02:34 2.1 °C -1.5 °C 1010 hPa NNE 0.8 km/h 8 km/h 77% 0 mm 0 W/m2
02:39 2.1 °C -1.5 °C 1009.7 hPa NNE 0.8 km/h 6.4 km/h 77% 0 mm 0 W/m2
02:44 2.1 °C -1.6 °C 1010 hPa NNE 0.3 km/h 6.4 km/h 77% 0 mm 0 W/m2
02:49 2.1 °C -1.5 °C 1010 hPa NNE 3.4 km/h 8 km/h 77.4% 0 mm 0 W/m2
02:54 2.1 °C -1.4 °C 1010 hPa NNE 1.9 km/h 8 km/h 78% 0 mm 0 W/m2
02:59 2 °C -1.4 °C 1010 hPa North 2.9 km/h 8 km/h 78% 0 mm 0 W/m2
03:04 2 °C -1.4 °C 1010 hPa North 1.6 km/h 8 km/h 78% 0 mm 0 W/m2
03:09 2 °C -1.4 °C 1010 hPa North 1.9 km/h 8 km/h 78% 0 mm 0 W/m2
03:14 2 °C -1.4 °C 1009.7 hPa North 2.4 km/h 8 km/h 78% 0 mm 0 W/m2
03:19 1.9 °C -1.5 °C 1009.7 hPa North 4.5 km/h 9.7 km/h 78% 0 mm 0 W/m2
03:24 1.9 °C -1.5 °C 1009.7 hPa NNW 1 km/h 9.7 km/h 78% 0 mm 0 W/m2
03:29 1.9 °C -1.5 °C 1009.7 hPa NNW 2.1 km/h 9.7 km/h 78% 0 mm 0 W/m2
03:34 1.8 °C -1.6 °C 1009.4 hPa NNW 1.4 km/h 9.7 km/h 78% 0 mm 0 W/m2
03:39 1.8 °C -1.6 °C 1009.7 hPa NNW 0.5 km/h 6.4 km/h 78% 0 mm 0 W/m2
03:44 1.8 °C -1.6 °C 1009.4 hPa Calm   6.4 km/h 78% 0 mm 0 W/m2
03:49 1.8 °C -1.6 °C 1009.4 hPa NNW 1.1 km/h 6.4 km/h 78.4% 0 mm 0 W/m2
03:54 1.8 °C -1.5 °C 1009.4 hPa NNW 1 km/h 9.7 km/h 79% 0 mm 0 W/m2
03:59 1.7 °C -1.5 °C 1009.4 hPa NW 2.4 km/h 9.7 km/h 79% 0 mm 0 W/m2
04:00 1.7 °C -1.5 °C 1009 hPa NNW 4.8 km/h 9.7 km/h 79% 0 mm 0 W/m2
04:09 1.7 °C -1.6 °C 1009 hPa NNW 3.4 km/h 9.7 km/h 79% 0 mm 0 W/m2
04:14 1.7 °C -1.6 °C 1009 hPa NNW 2.7 km/h 9.7 km/h 79% 0 mm 0 W/m2
04:19 1.7 °C -1.5 °C 1009 hPa NNW 3.5 km/h 9.7 km/h 79.5% 0 mm 0 W/m2
04:24 1.7 °C -1.4 °C 1009 hPa North 2.4 km/h 9.7 km/h 80% 0 mm 0 W/m2
04:29 1.7 °C -1.4 °C 1009 hPa NNW 2.7 km/h 9.7 km/h 80% 0 mm 0 W/m2
04:34 1.7 °C -1.4 °C 1009 hPa NNW 2.4 km/h 9.7 km/h 80% 0 mm 0 W/m2
04:39 1.6 °C -1.4 °C 1009 hPa NNW 2.1 km/h 8 km/h 80% 0 mm 0 W/m2
04:44 1.6 °C -1.4 °C 1009 hPa NNW 1.4 km/h 8 km/h 80% 0 mm 0 W/m2
04:49 1.6 °C -1.4 °C 1009 hPa NNW 3.5 km/h 11.3 km/h 80.3% 0 mm 0 W/m2
04:54 1.6 °C -1.3 °C 1009 hPa NNW 4 km/h 11.3 km/h 81% 0 mm 0 W/m2
04:59 1.6 °C -1.3 °C 1009 hPa NNW 4.8 km/h 11.3 km/h 81% 0 mm 0 W/m2
05:04 1.6 °C -1.4 °C 1009 hPa NNW 5.6 km/h 16.1 km/h 80.1% 0 mm 0 W/m2
05:09 1.6 °C -1.5 °C 1009 hPa NNW 3.9 km/h 16.1 km/h 80% 0 mm 0 W/m2
05:14 1.6 °C -1.6 °C 1008.7 hPa North 3.4 km/h 16.1 km/h 79.8% 0 mm 0 W/m2
05:19 1.6 °C -1.6 °C 1008.7 hPa North 1 km/h 16.1 km/h 79.9% 0 mm 0 W/m2
05:24 1.5 °C -1.7 °C 1008.7 hPa North 2.7 km/h 16.1 km/h 79.5% 0 mm 0 W/m2
05:29 1.4 °C -1.7 °C 1008.7 hPa North 3.1 km/h 16.1 km/h 79.5% 0 mm 0 W/m2
05:34 1.4 °C -1.8 °C 1008.7 hPa North 0.8 km/h 16.1 km/h 79% 0 mm 0 W/m2
05:39 1.4 °C -1.9 °C 1008.7 hPa North 1.4 km/h 6.4 km/h 79% 0 mm 0 W/m2
05:44 1.3 °C -1.7 °C 1008.7 hPa North 0.5 km/h 6.4 km/h 79.9% 0 mm 0 W/m2
05:49 1.3 °C -1.8 °C 1008.7 hPa North 0.3 km/h 6.4 km/h 80% 0 mm 0 W/m2
05:54 1.3 °C -1.8 °C 1008.7 hPa North 1.1 km/h 8 km/h 80% 0 mm 0 W/m2
05:59 1.2 °C -1.8 °C 1008.7 hPa Calm   8 km/h 80% 0 mm 0 W/m2
06:04 1.2 °C -1.8 °C 1008.7 hPa North 2.9 km/h 11.3 km/h 80% 0 mm 0 W/m2
06:09 1.2 °C -1.9 °C 1008.7 hPa North 1.9 km/h 11.3 km/h 80% 0 mm 0 W/m2
06:14 1.2 °C -1.9 °C 1008.7 hPa North 1.4 km/h 11.3 km/h 80% 0 mm 0 W/m2
06:18 1.1 °C -1.9 °C 1009 hPa North 0.5 km/h 11.3 km/h 80% 0 mm 0 W/m2
06:30 1 °C -2.1 °C 1008.7 hPa North 1.6 km/h 11.3 km/h 80% 0 mm 0 W/m2
07:00 0.8 °C -2.1 °C 1008.7 hPa North 1.6 km/h 11.3 km/h 81% 0 mm 0 W/m2
07:30 0.8 °C -2.1 °C 1008.7 hPa NNW 3.2 km/h 11.3 km/h 81% 0 mm 1 W/m2
08:04 1.2 °C -1.7 °C 1008.7 hPa NNW 2.9 km/h 11.3 km/h 81% 0 mm 37 W/m2
08:09 1.3 °C -1.6 °C 1008.7 hPa North 5.3 km/h 11.3 km/h 81% 0 mm 40 W/m2
08:14 1.3 °C -1.6 °C 1008.7 hPa NNW 3.7 km/h 11.3 km/h 81% 0 mm 44 W/m2
08:19 1.4 °C -1.6 °C 1008.7 hPa NNW 2.7 km/h 11.3 km/h 80.7% 0 mm 47 W/m2
08:24 1.5 °C -1.6 °C 1008.7 hPa North 3.9 km/h 11.3 km/h 80.3% 0 mm 54 W/m2
08:29 1.6 °C -1.5 °C 1008.7 hPa NNW 3.9 km/h 11.3 km/h 80% 0 mm 56 W/m2
08:34 1.7 °C -1.4 °C 1008.7 hPa NNW 3.5 km/h 17.7 km/h 80% 0 mm 56 W/m2
08:39 1.7 °C -1.3 °C 1008.7 hPa NNW 4.2 km/h 17.7 km/h 80% 0 mm 62 W/m2
08:44 1.8 °C -1.4 °C 1008.7 hPa NNW 4.5 km/h 17.7 km/h 79.3% 0 mm 69 W/m2
08:49 1.9 °C -1.4 °C 1008.7 hPa NNW 3.5 km/h 17.7 km/h 79% 0 mm 76 W/m2
08:54 1.9 °C -1.3 °C 1008.7 hPa NNW 3.7 km/h 17.7 km/h 79% 0 mm 79 W/m2
08:59 2 °C -1.2 °C 1009 hPa North 2.1 km/h 17.7 km/h 79% 0 mm 90 W/m2
09:04 2.1 °C -1.2 °C 1009 hPa NNW 2.3 km/h 17.7 km/h 79% 0 mm 98 W/m2
09:09 2.2 °C -1.1 °C 1009 hPa North 4.5 km/h 12.9 km/h 78.9% 0 mm 107 W/m2
09:14 2.2 °C -1.2 °C 1009 hPa North 3.2 km/h 16.1 km/h 78% 0 mm 109 W/m2
09:19 2.3 °C -1.1 °C 1009 hPa NNW 3.4 km/h 16.1 km/h 78% 0 mm 113 W/m2
09:24 2.4 °C -1.1 °C 1009 hPa North 4.5 km/h 16.1 km/h 77.6% 0 mm 116 W/m2
09:29 2.5 °C -1.1 °C 1009 hPa North 6.3 km/h 17.7 km/h 77% 0 mm 120 W/m2
09:34 2.6 °C -1 °C 1009 hPa NNW 6.4 km/h 17.7 km/h 77% 0 mm 128 W/m2
09:39 2.7 °C -0.9 °C 1009 hPa North 4.8 km/h 14.5 km/h 76.8% 0 mm 132 W/m2
09:44 2.8 °C -0.9 °C 1009 hPa North 6 km/h 19.3 km/h 76% 0 mm 142 W/m2
09:49 2.9 °C -0.9 °C 1009 hPa NNE 3.4 km/h 19.3 km/h 75.5% 0 mm 146 W/m2
09:54 3.1 °C -0.9 °C 1008.7 hPa NE 3.4 km/h 19.3 km/h 75% 0 mm 146 W/m2
09:59 3.2 °C -0.8 °C 1008.7 hPa NNW 4.8 km/h 19.3 km/h 75% 0 mm 149 W/m2
10:04 3.3 °C -0.8 °C 1008.7 hPa North 5.3 km/h 19.3 km/h 74.4% 0 mm 151 W/m2
10:09 3.4 °C -0.8 °C 1008.7 hPa NNW 6.4 km/h 20.9 km/h 74% 0 mm 148 W/m2
10:14 3.5 °C -0.7 °C 1008.7 hPa NNW 7.6 km/h 20.9 km/h 74% 0 mm 156 W/m2
10:19 3.6 °C -0.7 °C 1008.7 hPa NNW 6.6 km/h 20.9 km/h 73.8% 0 mm 178 W/m2
10:24 3.7 °C -0.6 °C 1008.7 hPa North 5.5 km/h 20.9 km/h 73.7% 0 mm 181 W/m2
10:29 3.8 °C -0.6 °C 1008.7 hPa North 5.8 km/h 20.9 km/h 73% 0 mm 185 W/m2
10:34 3.9 °C -0.4 °C 1008.7 hPa North 4.5 km/h 20.9 km/h 73% 0 mm 209 W/m2
10:39 4.1 °C -0.4 °C 1008.7 hPa NNE 5.5 km/h 16.1 km/h 72.4% 0 mm 232 W/m2
10:44 4.2 °C -0.4 °C 1008.4 hPa ENE 2.7 km/h 16.1 km/h 72% 0 mm 230 W/m2
10:49 4.3 °C -0.3 °C 1008.4 hPa NNE 5 km/h 17.7 km/h 72% 0 mm 227 W/m2
10:54 4.5 °C -0.1 °C 1008.4 hPa NNE 5 km/h 19.3 km/h 71.9% 0 mm 244 W/m2
10:59 4.7 °C -0.1 °C 1008.4 hPa North 5.8 km/h 27.4 km/h 71.1% 0 mm 234 W/m2
11:04 4.8 °C -0.1 °C 1008.4 hPa North 7.4 km/h 27.4 km/h 71% 0 mm 229 W/m2
11:09 4.9 °C 0.1 °C 1008 hPa North 8.7 km/h 32.2 km/h 71% 0 mm 197 W/m2
11:14 4.9 °C 0.1 °C 1008 hPa NNE 8 km/h 32.2 km/h 70.8% 0 mm 200 W/m2
11:19 5 °C 0.3 °C 1007.7 hPa North 6.4 km/h 32.2 km/h 71.7% 0 mm 221 W/m2
11:24 5.1 °C 0.2 °C 1007.7 hPa North 12.9 km/h 32.2 km/h 71% 0 mm 216 W/m2
11:29 5.1 °C 0.3 °C 1007.7 hPa North 14.3 km/h 33.8 km/h 71% 0 mm 202 W/m2
11:34 5.1 °C 0.2 °C 1007.7 hPa North 12.2 km/h 33.8 km/h 71% 0 mm 207 W/m2
11:39 5.1 °C 0.3 °C 1007.7 hPa North 11.3 km/h 38.6 km/h 71% 0 mm 211 W/m2
11:44 5.1 °C 0.3 °C 1007.7 hPa North 11.9 km/h 38.6 km/h 71% 0 mm 199 W/m2
11:49 5 °C 0.2 °C 1007.7 hPa North 10.6 km/h 38.6 km/h 71% 0 mm 199 W/m2
11:54 5 °C 0.2 °C 1007.7 hPa North 11.7 km/h 38.6 km/h 71% 0 mm 193 W/m2
11:59 5 °C 0.2 °C 1007.3 hPa NNW 7.9 km/h 38.6 km/h 71% 0 mm 193 W/m2
12:04 5 °C 0.3 °C 1007.3 hPa NNW 6.4 km/h 9.7 km/h 71.5% 0 mm 178 W/m2
12:09 5 °C 0.3 °C 1007.3 hPa North 11.1 km/h 27.4 km/h 71.6% 0 mm 207 W/m2
12:14 5.1 °C 0.4 °C 1007 hPa NNW 6.8 km/h 27.4 km/h 72% 0 mm 207 W/m2
12:19 5.2 °C 0.4 °C 1007 hPa North 8.5 km/h 32.2 km/h 71.2% 0 mm 227 W/m2
12:24 5.3 °C 0.4 °C 1007 hPa North 7.7 km/h 32.2 km/h 71% 0 mm 230 W/m2
12:29 5.4 °C 0.6 °C 1007 hPa NNW 13 km/h 32.2 km/h 71% 0 mm 230 W/m2
12:34 5.4 °C 0.6 °C 1007 hPa North 10 km/h 33.8 km/h 71% 0 mm 241 W/m2
12:39 5.5 °C 0.6 °C 1007 hPa NNW 6.1 km/h 33.8 km/h 70.3% 0 mm 186 W/m2
12:44 5.6 °C 0.7 °C 1006.7 hPa North 7.9 km/h 33.8 km/h 70.4% 0 mm 199 W/m2
12:49 5.7 °C 0.7 °C 1006.7 hPa NNW 10.8 km/h 33.8 km/h 70% 0 mm 181 W/m2
12:54 5.8 °C 0.7 °C 1006.7 hPa NNW 6.3 km/h 33.8 km/h 70% 0 mm 202 W/m2
12:59 5.8 °C 0.8 °C 1006.7 hPa North 5 km/h 33.8 km/h 70% 0 mm 199 W/m2
13:04 5.9 °C 0.7 °C 1006.7 hPa NNW 7.9 km/h 33.8 km/h 69.3% 0 mm 179 W/m2
13:09 5.9 °C 0.7 °C 1006.3 hPa North 4.3 km/h 25.7 km/h 69% 0 mm 169 W/m2
13:14 6 °C 0.8 °C 1006.3 hPa NNW 6.8 km/h 25.7 km/h 69.1% 0 mm 167 W/m2
13:19 6.1 °C 0.7 °C 1006.3 hPa NNW 10 km/h 25.7 km/h 68.7% 0 mm 171 W/m2
13:24 6.1 °C 0.6 °C 1006.3 hPa NNW 10.9 km/h 27.4 km/h 68% 0 mm 169 W/m2
13:29 6 °C 0.6 °C 1006 hPa NNW 7.1 km/h 27.4 km/h 68% 0 mm 220 W/m2
13:34 6.1 °C 0.4 °C 1006 hPa NNW 9.5 km/h 27.4 km/h 67.2% 0 mm 149 W/m2
13:39 6 °C 0.3 °C 1006 hPa North 10.9 km/h 24.1 km/h 67% 0 mm 135 W/m2
13:44 6 °C 0.3 °C 1006 hPa North 8.2 km/h 33.8 km/h 67% 0 mm 125 W/m2
13:49 5.9 °C 0.3 °C 1006 hPa NNE 6.6 km/h 33.8 km/h 67% 0 mm 118 W/m2
13:54 5.9 °C 0.2 °C 1006 hPa North 8.2 km/h 33.8 km/h 67% 0 mm 134 W/m2
13:59 5.8 °C 0.1 °C 1006 hPa NNE 6.6 km/h 33.8 km/h 66.5% 0 mm 148 W/m2
14:04 5.8 °C 0.1 °C 1006 hPa North 8.5 km/h 33.8 km/h 66.6% 0 mm 160 W/m2
14:09 5.8 °C 0.1 °C 1006 hPa North 5.3 km/h 24.1 km/h 66.5% 0 mm 204 W/m2
14:14 5.8 °C 0.1 °C 1006 hPa North 7.9 km/h 24.1 km/h 66.6% 0 mm 213 W/m2
14:19 5.8 °C 0 °C 1006 hPa North 10.3 km/h 24.1 km/h 66% 0 mm 165 W/m2
14:24 5.8 °C -0.1 °C 1006 hPa North 8.4 km/h 24.1 km/h 66% 0 mm 148 W/m2
14:29 5.7 °C -0.2 °C 1006 hPa NNW 8.9 km/h 27.4 km/h 66% 0 mm 120 W/m2
14:34 5.6 °C -0.1 °C 1006 hPa North 2.6 km/h 27.4 km/h 66.8% 0 mm 109 W/m2
14:39 5.5 °C -0.1 °C 1006 hPa North 4.3 km/h 19.3 km/h 67% 0 mm 86 W/m2
14:44 5.4 °C -0.3 °C 1006 hPa NNE 4.7 km/h 19.3 km/h 66.5% 0 mm 86 W/m2
14:49 5.3 °C -0.3 °C 1006 hPa North 4 km/h 19.3 km/h 67% 0 mm 84 W/m2
14:54 5.3 °C -0.3 °C 1006 hPa North 4.8 km/h 19.3 km/h 67% 0 mm 84 W/m2
14:59 5.3 °C -0.3 °C 1006 hPa NNE 4 km/h 19.3 km/h 67% 0 mm 79 W/m2
15:04 5.3 °C -0.3 °C 1005.6 hPa North 3.5 km/h 19.3 km/h 67% 0 mm 79 W/m2
15:09 5.3 °C -0.3 °C 1006 hPa North 3.1 km/h 11.3 km/h 67% 0 mm 76 W/m2
15:14 5.3 °C -0.4 °C 1006.3 hPa NW 10.1 km/h 25.7 km/h 67% 0 mm 72 W/m2
15:19 5.3 °C -0.6 °C 1006.3 hPa NW 14.8 km/h 32.2 km/h 66% 0 mm 67 W/m2
15:24 5.2 °C -0.9 °C 1006 hPa NNW 11.3 km/h 32.2 km/h 65% 0 mm 63 W/m2
15:29 5.1 °C -0.9 °C 1006.3 hPa NNW 11.3 km/h 33.8 km/h 65.2% 0 mm 60 W/m2
15:34 5 °C -1 °C 1006.3 hPa NW 11.7 km/h 33.8 km/h 65% 0 mm 54 W/m2
15:39 4.9 °C -1.1 °C 1006.3 hPa NW 10.6 km/h 30.6 km/h 65% 0 mm 49 W/m2
15:44 4.8 °C -1.2 °C 1006.3 hPa NNW 14.8 km/h 30.6 km/h 64.9% 0 mm 46 W/m2
15:49 4.7 °C -1.5 °C 1006.7 hPa NW 13 km/h 35.4 km/h 64.1% 0 mm 42 W/m2
15:54 4.6 °C -1.6 °C 1006.3 hPa NW 12.6 km/h 35.4 km/h 64% 0 mm 39 W/m2
15:59 4.5 °C -1.7 °C 1006.3 hPa NW 12.4 km/h 35.4 km/h 64% 0 mm 35 W/m2
16:00 4.4 °C -1.8 °C 1006.3 hPa NW 14.5 km/h 35.4 km/h 64% 0 mm 33 W/m2
16:09 4.3 °C -1.9 °C 1006.3 hPa NNW 9.7 km/h 25.7 km/h 64% 0 mm 30 W/m2
16:14 4.2 °C -2 °C 1006.3 hPa NW 9.2 km/h 29 km/h 64% 0 mm 26 W/m2
16:19 4 °C -2.4 °C 1006.7 hPa NNW 13.7 km/h 32.2 km/h 63% 0 mm 25 W/m2
16:24 3.8 °C -2.5 °C 1006.7 hPa NNW 10.9 km/h 32.2 km/h 63.2% 0 mm 21 W/m2
16:29 3.6 °C -2.7 °C 1007 hPa NW 13.2 km/h 32.2 km/h 63.2% 0 mm 16 W/m2
16:34 3.4 °C -2.9 °C 1007 hPa NNW 12.7 km/h 32.2 km/h 63% 0 mm 12 W/m2
16:39 3.2 °C -3.2 °C 1007 hPa NW 13 km/h 27.4 km/h 63% 0 mm 9 W/m2
16:44 2.9 °C -3.4 °C 1007 hPa NW 18 km/h 35.4 km/h 63% 0 mm 7 W/m2
16:49 2.7 °C -3.6 °C 1007 hPa NNW 10.9 km/h 35.4 km/h 63.3% 0 mm 5 W/m2
16:54 2.4 °C -3.7 °C 1007.3 hPa NNW 11.9 km/h 35.4 km/h 64% 0 mm 0 W/m2
16:59 2.2 °C -3.9 °C 1007.3 hPa NNW 14.5 km/h 35.4 km/h 64% 0 mm 0 W/m2
17:04 2.1 °C -4.1 °C 1007.3 hPa NW 10.3 km/h 35.4 km/h 64% 0 mm 0 W/m2
17:09 1.9 °C -4.2 °C 1007.3 hPa NW 13.8 km/h 29 km/h 64% 0 mm 0 W/m2
17:14 1.8 °C -4.1 °C 1007.3 hPa NW 10.3 km/h 29 km/h 65% 0 mm 0 W/m2
17:19 1.7 °C -4.3 °C 1007.3 hPa NW 8 km/h 29 km/h 64.4% 0 mm 0 W/m2
17:24 1.5 °C -4.3 °C 1007.3 hPa NW 12.6 km/h 29 km/h 65% 0 mm 0 W/m2
17:29 1.4 °C -4.7 °C 1007.7 hPa NW 15 km/h 29 km/h 64% 0 mm 0 W/m2
17:34 1.2 °C -4.8 °C 1007.7 hPa NW 14.5 km/h 35.4 km/h 64% 0 mm 0 W/m2
17:39 1.1 °C -5 °C 1007.7 hPa NW 14.3 km/h 35.4 km/h 64% 0 mm 0 W/m2
17:44 0.9 °C -5.3 °C 1008 hPa NW 17.2 km/h 35.4 km/h 63.4% 0 mm 0 W/m2
17:49 0.8 °C -5.1 °C 1008 hPa NNW 10.1 km/h 35.4 km/h 64.6% 0 mm 0 W/m2
17:54 0.7 °C -4.9 °C 1008 hPa NW 9.5 km/h 35.4 km/h 65.8% 0 mm 0 W/m2
17:59 0.6 °C -5.1 °C 1008 hPa NNW 9.3 km/h 35.4 km/h 65.7% 0 mm 0 W/m2
18:04 0.5 °C -5.1 °C 1008 hPa NNW 11.6 km/h 35.4 km/h 66% 0 mm 0 W/m2
18:09 0.3 °C -5.4 °C 1008.4 hPa NW 16.4 km/h 33.8 km/h 65.2% 0 mm 0 W/m2
18:14 0.2 °C -5.7 °C 1008.4 hPa NW 18 km/h 33.8 km/h 64.6% 0 mm 0 W/m2
18:19 0 °C -6 °C 1008.4 hPa NW 14.2 km/h 33.8 km/h 64.1% 0 mm 0 W/m2
18:24 -0.2 °C -6.3 °C 1008.4 hPa NW 14.5 km/h 33.8 km/h 63.3% 0 mm 0 W/m2
18:29 -0.3 °C -6.6 °C 1008.7 hPa NW 9.8 km/h 33.8 km/h 62.5% 0 mm 0 W/m2
18:34 -0.4 °C -6.8 °C 1008.7 hPa NW 11.6 km/h 33.8 km/h 62.2% 0 mm 0 W/m2
18:39 -0.6 °C -7.1 °C 1008.7 hPa NW 14 km/h 35.4 km/h 61.2% 0 mm 0 W/m2
18:44 -0.7 °C -7.3 °C 1009 hPa NNW 11.7 km/h 35.4 km/h 61% 0 mm 0 W/m2
18:49 -0.8 °C -7.5 °C 1009 hPa NW 9.7 km/h 35.4 km/h 60.4% 0 mm 0 W/m2
18:54 -0.9 °C -7.6 °C 1009.4 hPa NW 12.7 km/h 35.4 km/h 60.3% 0 mm 0 W/m2
18:59 -1 °C -7.8 °C 1009.4 hPa NNW 12.1 km/h 35.4 km/h 59.7% 0 mm 0 W/m2
19:04 -1.1 °C -8.1 °C 1009.4 hPa NNW 10.1 km/h 35.4 km/h 59% 0 mm 0 W/m2
19:09 -1.2 °C -8.2 °C 1009.7 hPa NNW 14.2 km/h 29 km/h 58.9% 0 mm 0 W/m2
19:14 -1.3 °C -8.7 °C 1009.7 hPa NNW 13.7 km/h 33.8 km/h 57.2% 0 mm 0 W/m2
19:19 -1.5 °C -8.9 °C 1009.7 hPa NNW 16.1 km/h 33.8 km/h 57% 0 mm 0 W/m2
19:24 -1.7 °C -9.1 °C 1009.7 hPa NW 15.8 km/h 33.8 km/h 57% 0 mm 0 W/m2
19:29 -1.8 °C -9.3 °C 1010 hPa NNW 16.4 km/h 37 km/h 56.6% 0 mm 0 W/m2
19:34 -2.1 °C -9.6 °C 1010 hPa NW 19.3 km/h 37 km/h 56.3% 0 mm 0 W/m2
19:39 -2.2 °C -9.7 °C 1010 hPa NNW 17.2 km/h 29 km/h 56.7% 0 mm 0 W/m2
19:44 -2.4 °C -9.8 °C 1010 hPa NNW 16.9 km/h 33.8 km/h 56.8% 0 mm 0 W/m2
19:49 -2.6 °C -10 °C 1010 hPa NW 15.1 km/h 33.8 km/h 56.4% 0 mm 0 W/m2
19:54 -2.7 °C -10.2 °C 1010.4 hPa NNW 19 km/h 37 km/h 56.5% 0 mm 0 W/m2
19:59 -2.8 °C -10.4 °C 1010.4 hPa NW 18 km/h 37 km/h 56% 0 mm 0 W/m2
20:00 -2.9 °C -10.5 °C 1010.4 hPa NNW 24.6 km/h 37 km/h 56% 0 mm 0 W/m2
20:09 -3.2 °C -10.7 °C 1010.4 hPa NNW 20.6 km/h 35.4 km/h 56% 0 mm 0 W/m2
20:14 -3.3 °C -10.8 °C 1010.4 hPa NNW 14.5 km/h 35.4 km/h 56% 0 mm 0 W/m2
20:19 -3.4 °C -10.9 °C 1010.4 hPa NNW 16.3 km/h 35.4 km/h 56% 0 mm 0 W/m2
20:24 -3.6 °C -11.1 °C 1010.4 hPa NNW 14.2 km/h 35.4 km/h 56% 0 mm 0 W/m2
20:29 -3.8 °C -11.3 °C 1010.7 hPa NNW 14.2 km/h 35.4 km/h 56% 0 mm 0 W/m2
20:34 -3.9 °C -11.5 °C 1010.7 hPa NNW 18.7 km/h 41.8 km/h 55.5% 0 mm 0 W/m2
20:39 -4.1 °C -11.8 °C 1010.7 hPa NNW 13.2 km/h 41.8 km/h 55% 0 mm 0 W/m2
20:44 -4.2 °C -12 °C 1010.7 hPa NW 17.5 km/h 41.8 km/h 54.7% 0 mm 0 W/m2
20:49 -4.3 °C -12.3 °C 1010.7 hPa NW 15.8 km/h 41.8 km/h 54% 0 mm 0 W/m2
20:54 -4.5 °C -12.6 °C 1010.4 hPa NNW 19.5 km/h 41.8 km/h 53.4% 0 mm 0 W/m2
20:59 -4.6 °C -12.9 °C 1010.7 hPa NW 17.4 km/h 41.8 km/h 52.2% 0 mm 0 W/m2
21:04 -4.7 °C -13.2 °C 1010.7 hPa NNW 14.8 km/h 41.8 km/h 51.5% 0 mm 0 W/m2
21:09 -4.8 °C -13.4 °C 1011.1 hPa NW 15.3 km/h 33.8 km/h 50.8% 0 mm 0 W/m2
21:14 -4.9 °C -13.8 °C 1011.1 hPa NNW 20.6 km/h 37 km/h 49.6% 0 mm 0 W/m2
21:19 -5.1 °C -14.4 °C 1011.1 hPa NNW 18.7 km/h 38.6 km/h 48% 0 mm 0 W/m2
21:24 -5.2 °C -14.7 °C 1011.1 hPa NNW 16.9 km/h 38.6 km/h 47.2% 0 mm 0 W/m2
21:29 -5.3 °C -14.9 °C 1011.1 hPa NNW 10.5 km/h 38.6 km/h 46.9% 0 mm 0 W/m2
21:34 -5.4 °C -15.1 °C 1011.1 hPa NW 16.6 km/h 38.6 km/h 46.5% 0 mm 0 W/m2
21:39 -5.6 °C -15.7 °C 1011.4 hPa NNW 15 km/h 37 km/h 44.6% 0 mm 0 W/m2
21:44 -5.7 °C -16 °C 1011.4 hPa NW 17.5 km/h 37 km/h 43.8% 0 mm 0 W/m2
21:49 -5.7 °C -16.3 °C 1011.4 hPa NNW 14.3 km/h 37 km/h 43.1% 0 mm 0 W/m2
21:54 -5.8 °C -16.3 °C 1011.4 hPa NW 9.5 km/h 37 km/h 43.3% 0 mm 0 W/m2
21:59 -5.9 °C -16.3 °C 1011.4 hPa NW 15.3 km/h 37 km/h 43.4% 0 mm 0 W/m2
22:04 -6 °C -16.6 °C 1011.4 hPa NNW 13.4 km/h 37 km/h 43% 0 mm 0 W/m2
22:09 -6.1 °C -16.7 °C 1011.7 hPa NW 15.8 km/h 40.2 km/h 42.9% 0 mm 0 W/m2
22:14 -6.2 °C -16.9 °C 1011.7 hPa NW 12.2 km/h 40.2 km/h 42.1% 0 mm 0 W/m2
22:19 -6.3 °C -17.3 °C 1011.7 hPa NW 14.3 km/h 40.2 km/h 41.4% 0 mm 0 W/m2
22:24 -6.4 °C -17.4 °C 1011.7 hPa NW 12.4 km/h 40.2 km/h 41.5% 0 mm 0 W/m2
22:29 -6.6 °C -17.6 °C 1012.1 hPa NW 16.6 km/h 40.2 km/h 41.4% 0 mm 0 W/m2
22:34 -6.8 °C -17.7 °C 1012.1 hPa NW 13.7 km/h 40.2 km/h 41.5% 0 mm 0 W/m2
22:39 -7 °C -17.7 °C 1012.1 hPa NW 15.1 km/h 33.8 km/h 42% 0 mm 0 W/m2
22:44 -7.1 °C -18.1 °C 1012.1 hPa NW 13.4 km/h 33.8 km/h 41.1% 0 mm 0 W/m2
22:49 -7.2 °C -18.1 °C 1012.1 hPa NW 10.3 km/h 33.8 km/h 41.6% 0 mm 0 W/m2
22:54 -7.3 °C -18.1 °C 1012.1 hPa NW 12.9 km/h 33.8 km/h 42% 0 mm 0 W/m2
22:59 -7.4 °C -18.4 °C 1012.4 hPa NW 11.7 km/h 33.8 km/h 41% 0 mm 0 W/m2
23:00 -7.5 °C -18.5 °C 1012.4 hPa NW 16.1 km/h 33.8 km/h 41% 0 mm 0 W/m2
23:09 -7.7 °C -18.6 °C 1012.4 hPa NW 16.6 km/h 38.6 km/h 41% 0 mm 0 W/m2
23:14 -7.7 °C -18.7 °C 1012.4 hPa NW 14.2 km/h 41.8 km/h 41% 0 mm 0 W/m2
23:19 -7.8 °C -18.7 °C 1012.4 hPa NNW 9.3 km/h 41.8 km/h 41.2% 0 mm 0 W/m2
23:24 -7.9 °C -18.6 °C 1012.4 hPa NW 11.3 km/h 41.8 km/h 42% 0 mm 0 W/m2
23:29 -8 °C -18.5 °C 1012.8 hPa NW 17.5 km/h 41.8 km/h 42.5% 0 mm 0 W/m2
23:34 -8.1 °C -18.5 °C 1012.8 hPa NW 15 km/h 41.8 km/h 43% 0 mm 0 W/m2
23:39 -8.3 °C -18.4 °C 1012.8 hPa NW 17.5 km/h 37 km/h 43.6% 0 mm 0 W/m2
23:44 -8.5 °C -18.6 °C 1013.1 hPa NW 14.8 km/h 37 km/h 44% 0 mm 0 W/m2
23:49 -8.7 °C -18.5 °C 1013.1 hPa NW 14.2 km/h 37 km/h 44.8% 0 mm 0 W/m2
23:54 -8.8 °C -18.6 °C 1013.1 hPa NW 16.6 km/h 38.6 km/h 44.8% 0 mm 0 W/m2
23:59 -8.9 °C -18.7 °C 1013.1 hPa NW 15.9 km/h 38.6 km/h 45% 0 mm 0 W/m2
Hartford County Weather
Compliments of Weather Underground - 4 mb